Theta_e
332 332 332 331 330 330 330 330 329 328 328 327 326 326 327 328 329 328 328 328 327 327 327 327 327 328 328 328 329 327 327 330 331 331 332 331 331 331 331 331 331 330
331 331 332 331 330 330 330 329 328 328 327 326 327 327 327 328 328 328 328 328 327 325 325 326 327 327 326 327 327 327 326 329 329 329 330 331 330 331 331 331 331 331
330 331 332 332 331 330 330 329 328 327 327 327 327 326 327 328 328 327 327 327 326 324 323 325 326 325 325 325 326 326 326 326 326 326 327 327 328 330 330 330 331 331
330 330 332 333 330 330 329 329 328 327 327 328 327 326 326 327 328 327 327 326 325 323 322 323 325 325 324 324 324 325 324 324 324 324 324 325 326 328 329 330 331 331
330 330 332 332 330 329 329 329 328 327 328 328 327 326 326 326 327 327 326 326 324 323 322 322 324 325 324 323 323 323 322 321 322 322 322 323 325 326 329 330 330 331
330 331 332 331 330 329 328 328 327 327 328 328 327 326 326 326 326 326 326 325 324 322 321 320 322 324 323 322 322 321 320 320 320 321 320 321 322 324 327 329 329 330
330 330 331 331 329 328 328 328 327 327 328 327 327 326 326 326 326 325 325 325 323 322 320 319 321 323 322 321 321 321 320 319 319 319 319 319 320 322 324 326 326 326
330 331 330 330 329 328 328 328 327 327 327 327 326 326 325 325 325 324 324 324 323 321 318 318 320 322 322 320 320 320 319 319 318 318 319 319 319 321 323 325 324 324
330 331 330 329 328 329 328 327 327 326 326 326 325 325 324 324 323 323 323 323 321 320 318 317 319 321 322 320 319 319 318 318 317 317 318 319 319 319 320 323 323 323
330 330 330 328 329 328 327 326 327 326 326 325 324 323 323 323 322 321 322 322 320 319 317 316 317 320 321 320 319 318 317 317 317 317 318 319 318 319 319 320 321 322
329 330 330 329 329 328 327 327 326 326 326 325 323 322 322 322 321 320 321 321 319 318 317 317 316 317 319 320 319 319 318 317 317 317 318 318 318 318 318 319 320 320
327 328 330 330 329 328 327 327 326 326 326 325 323 322 321 320 320 319 319 319 318 317 317 316 316 316 317 318 319 319 318 318 318 318 318 317 317 317 318 319 319 319
324 325 328 330 329 328 327 326 326 325 325 324 323 322 320 319 319 319 318 318 318 317 316 316 317 317 317 318 318 318 318 318 319 318 318 318 317 317 318 318 318 318
322 324 326 327 328 327 326 326 325 325 325 324 323 321 319 318 318 318 319 319 318 317 317 317 317 317 318 318 318 318 318 319 318 318 318 318 318 318 318 319 318 319
323 324 323 323 325 326 325 325 324 324 323 323 322 321 320 319 318 317 317 318 319 319 318 317 318 318 318 318 318 318 318 318 319 318 318 317 318 318 318 318 319 319
324 324 322 322 324 325 324 324 324 323 323 322 321 320 320 320 320 319 318 318 319 319 319 320 320 319 317 317 318 318 319 319 318 318 318 317 317 318 318 318 319 319
323 322 322 322 322 322 322 322 322 322 322 322 320 318 318 318 318 319 319 318 319 319 321 322 320 316 315 315 316 316 318 320 319 318 318 318 318 318 319 319 319 319
322 321 320 320 319 319 319 319 318 319 320 320 319 317 317 316 316 317 317 317 319 321 321 319 316 314 314 315 315 314 316 318 320 320 319 319 319 319 320 320 320 321
320 320 320 319 318 317 317 316 316 317 317 318 317 316 316 317 317 317 317 318 319 319 318 317 316 315 316 315 315 316 315 316 319 321 321 320 320 321 320 320 321 322
317 317 318 318 317 316 316 316 315 316 316 317 317 317 316 316 317 318 318 319 319 317 316 317 317 317 317 316 316 317 316 316 318 321 322 321 321 322 322 322 323 323
315 315 315 315 315 315 316 315 315 316 317 318 318 318 317 317 318 318 318 318 317 317 317 317 316 317 318 318 318 318 317 318 319 321 322 322 323 323 323 323 323 323
311 312 312 312 313 314 314 314 313 314 315 316 317 316 315 315 316 315 316 317 317 316 316 314 313 314 315 317 318 319 319 320 321 322 323 324 325 324 324 324 323 324
307 308 308 308 310 311 311 311 310 310 310 311 311 310 309 310 310 310 310 312 313 311 310 309 309 310 311 313 315 316 318 319 320 322 324 324 324 325 324 324 324 323
305 305 305 305 306 306 306 307 307 307 307 308 308 307 306 305 306 307 307 308 308 307 307 307 306 306 307 309 310 311 313 314 316 319 321 322 322 323 322 322 322 321
301 301 302 302 302 302 302 303 303 304 305 306 306 305 305 305 306 306 305 306 307 306 306 307 307 306 306 306 306 307 307 309 312 315 316 317 317 317 318 319 320 320
301 300 300 299 299 299 299 300 300 300 301 302 302 303 303 303 303 303 302 302 302 302 303 305 306 305 305 304 304 303 303 304 307 309 310 311 312 312 313 315 317 318
Wind_Speed
11 12 14 13 12 13 14 13 12 13 11 10 11 11 11 11 11 11 10 9 8 7 7 6 7 6 6 5 5 5 7 7 7 7 7 6 6 6 6 6 6 7
15 12 13 13 12 13 14 13 13 13 12 12 12 11 11 11 11 11 10 10 8 8 8 7 7 7 6 6 6 7 7 8 8 8 7 7 6 6 7 7 8 7
21 15 14 14 13 13 14 13 13 13 13 12 12 11 11 10 11 11 11 10 9 8 8 8 8 7 7 7 7 8 9 9 9 8 8 7 6 6 6 7 8 7
24 19 17 16 13 14 14 13 13 13 13 13 12 11 11 11 11 11 11 10 9 9 9 9 8 8 8 8 8 9 9 9 9 8 7 7 6 7 6 6 7 7
25 21 19 16 14 15 15 14 14 13 13 13 12 12 12 12 12 12 11 10 9 9 9 9 9 9 9 9 9 10 10 9 9 8 8 7 7 7 7 7 7 7
24 22 19 16 15 16 15 14 14 13 13 13 13 12 12 12 12 12 11 10 9 9 9 9 10 10 10 10 10 10 10 10 9 8 8 8 7 8 9 9 9 8
24 21 18 16 16 17 16 14 14 13 13 13 13 12 12 12 12 12 12 11 10 9 8 9 10 11 10 11 11 10 9 9 8 8 9 8 7 8 9 10 10 10
22 20 19 18 18 17 16 14 14 13 13 12 12 12 12 12 11 11 11 11 10 9 8 9 10 11 11 11 11 10 9 8 7 8 9 8 8 8 9 10 10 11
19 18 19 20 19 17 16 15 14 13 12 12 12 12 12 12 11 11 11 11 11 9 8 9 11 11 11 11 11 10 9 7 6 7 8 8 8 9 10 10 11 11
18 18 19 20 18 16 16 15 14 13 12 12 12 12 12 11 10 11 12 12 11 10 9 9 11 11 11 10 10 9 8 8 8 8 8 8 8 9 9 10 10 11
11 12 16 19 18 16 16 15 14 14 12 11 12 12 11 10 10 11 11 11 11 10 10 10 10 11 11 10 10 9 8 8 9 9 9 8 8 8 8 8 9 9
12 10 11 16 17 16 17 16 15 14 13 11 11 11 11 10 10 11 11 11 10 9 9 10 10 11 10 10 10 9 9 9 9 9 9 8 8 7 7 7 7 8
20 16 11 12 15 16 17 16 15 14 12 11 11 11 11 10 10 10 10 10 9 8 8 9 9 10 10 10 10 9 9 9 8 8 8 8 7 7 6 6 6 6
20 17 12 10 11 13 15 15 14 13 11 10 10 10 10 10 10 10 9 9 9 8 8 8 9 10 9 9 10 9 9 8 7 8 8 8 7 6 6 5 5 5
16 14 15 13 9 10 13 13 13 12 11 11 10 9 8 8 8 9 9 9 9 8 8 8 8 8 9 9 9 9 8 7 6 6 6 6 6 5 5 4 4 4
15 14 16 14 11 11 12 12 12 12 11 11 10 8 7 6 6 6 7 8 9 9 8 8 7 8 9 10 9 8 7 6 6 6 5 5 5 5 5 4 4 4
17 18 19 19 17 15 15 15 14 13 13 12 11 10 8 7 6 6 6 7 7 8 8 7 7 8 9 9 8 8 6 4 5 5 5 5 5 6 5 5 6 6
18 20 21 21 21 20 19 18 15 13 12 10 10 10 9 8 7 6 6 7 7 8 7 6 6 7 7 8 8 8 7 5 4 5 6 6 6 7 6 6 6 7
17 18 18 18 19 18 16 14 11 8 6 6 7 7 6 8 8 7 7 8 8 8 7 5 4 4 5 7 7 8 8 7 6 5 6 7 7 7 7 7 7 8
15 16 15 16 16 16 15 14 12 10 8 8 8 8 7 7 8 8 8 9 8 8 7 4 2 2 3 6 6 7 8 8 7 7 8 8 8 8 8 8 8 8
17 18 18 18 17 17 17 15 13 12 12 12 12 12 11 10 10 9 10 10 9 8 6 4 2 1 1 3 4 5 6 5 5 6 7 7 7 8 8 9 9 9
17 18 19 19 20 21 20 18 17 15 14 14 14 15 15 15 14 13 13 12 11 8 7 6 5 3 2 1 2 3 3 2 3 4 4 5 5 6 6 7 7 7
19 19 19 18 19 21 20 20 19 17 16 16 17 17 17 18 18 17 16 16 15 12 10 9 7 6 4 3 1 0 1 1 1 3 3 4 4 5 5 6 7 8
22 22 21 18 17 17 18 19 18 17 17 18 17 17 16 17 17 16 15 14 13 12 10 8 7 6 5 3 2 1 0 1 1 2 2 3 3 4 5 6 8 11
22 22 22 21 19 18 18 18 17 16 16 15 14 14 14 14 13 13 12 10 9 8 7 5 4 3 2 1 1 1 0 1 1 2 2 2 3 3 5 6 7 9
17 18 19 19 18 18 18 17 16 15 15 14 12 12 13 11 10 10 10 9 7 6 4 2 1 1 2 2 2 3 3 2 1 2 3 4 5 6 7 8 7 7
Wind_Direction
189 181 178 174 169 167 168 170 167 166 168 165 165 166 166 168 168 165 158 149 142 131 128 136 141 141 141 142 141 138 134 130 135 145 151 159 164 166 176 184 184 182
192 193 191 183 175 172 172 170 164 164 165 164 163 162 163 166 168 167 159 149 141 129 128 135 136 136 136 136 134 131 130 127 128 136 144 151 154 159 168 173 177 180
190 198 199 187 178 174 172 168 163 163 163 162 161 159 159 163 166 166 159 153 143 131 131 135 136 137 133 133 133 131 130 126 125 131 137 142 146 150 159 166 171 175
189 200 199 187 181 178 172 168 165 164 164 163 160 157 157 161 164 163 159 156 146 135 136 138 139 139 135 134 133 131 128 123 125 129 130 133 136 140 149 156 160 163
190 200 197 186 180 177 174 173 170 167 168 166 162 160 159 160 162 163 162 160 153 144 141 141 142 140 137 134 131 129 127 121 120 121 119 121 124 130 136 142 147 148
191 197 193 184 178 176 177 178 174 171 171 169 166 165 163 163 164 165 166 165 160 153 146 145 145 142 138 135 132 131 129 125 122 121 116 111 113 123 126 128 136 137
190 191 187 181 179 178 179 178 176 174 172 170 168 167 167 168 167 167 169 169 165 158 151 148 146 143 139 138 136 133 130 129 128 127 122 112 108 118 122 120 123 126
185 183 182 183 181 178 178 176 175 173 169 167 168 167 167 169 168 168 171 170 166 161 152 148 148 144 142 141 141 137 134 133 134 132 127 119 113 118 126 125 123 124
180 177 181 184 181 177 177 175 171 169 166 165 165 164 166 168 168 170 172 170 166 161 152 148 148 146 144 144 144 142 140 137 137 137 135 132 126 124 128 131 131 130
175 173 179 183 180 177 176 171 169 168 166 163 161 162 163 163 166 170 171 168 165 164 159 151 149 150 149 147 146 145 142 138 137 140 142 141 136 130 130 132 135 136
159 166 175 179 177 175 172 169 168 168 164 160 158 159 159 158 162 169 170 168 167 167 166 157 153 154 154 151 148 144 142 140 139 139 141 141 137 134 133 133 135 139
155 167 175 176 173 170 170 168 168 166 163 159 156 155 157 159 163 168 171 170 168 170 171 164 157 155 155 155 153 151 148 144 141 142 143 142 141 140 140 140 141 144
173 173 172 172 169 166 166 165 165 164 159 156 154 153 156 160 164 169 172 170 166 167 168 164 158 155 153 154 155 156 153 149 147 147 145 144 144 141 139 141 146 149
168 165 160 158 157 158 159 158 158 157 151 147 146 147 154 161 165 166 168 167 163 161 162 161 158 153 151 154 156 157 155 154 155 154 151 148 147 143 139 138 143 147
154 160 165 159 142 141 146 145 144 142 137 136 137 142 150 154 159 166 169 167 159 155 155 155 154 153 154 157 156 157 160 161 160 160 160 158 154 153 153 156 159 156
143 147 152 146 129 123 122 120 121 122 122 124 128 135 141 141 146 154 162 163 159 155 150 148 150 154 159 162 159 159 163 165 167 170 173 174 174 175 175 182 189 186
135 136 139 138 134 127 118 115 117 115 112 112 118 129 137 144 148 142 148 155 151 145 141 145 158 162 164 169 173 176 177 175 180 186 190 194 196 195 194 196 201 202
133 133 133 134 134 132 127 124 123 116 111 110 118 125 127 135 144 149 156 148 131 129 137 153 173 179 180 186 193 202 208 210 211 210 207 209 211 210 209 204 203 205
123 120 120 126 133 136 136 139 143 142 142 145 144 143 134 128 129 132 135 128 125 135 141 150 176 198 211 214 216 222 226 228 232 231 225 223 224 223 223 218 215 218
116 116 118 128 140 146 152 166 181 185 183 175 166 168 163 143 133 130 125 118 120 126 117 105 128 202 228 231 231 233 237 238 237 238 240 240 239 238 238 234 229 231
111 116 119 124 132 139 144 152 161 163 161 157 153 151 148 142 139 137 130 119 110 107 97 82 75 91 209 220 221 226 231 230 230 238 243 244 244 244 246 247 244 245
96 103 109 113 122 128 131 131 130 129 132 134 135 133 131 131 130 127 124 121 113 108 107 101 92 82 86 159 202 221 224 222 237 245 243 244 245 243 246 251 249 247
93 95 97 100 107 114 118 121 120 118 119 121 122 119 116 118 118 115 115 117 116 114 114 108 97 87 78 74 75 194 214 219 277 267 256 260 262 259 262 261 256 261
95 97 98 96 95 98 104 109 112 113 116 119 116 111 108 108 109 109 108 111 114 114 112 106 97 86 75 69 61 42 108 110 358 302 279 279 278 277 283 278 274 278
89 93 97 98 97 97 101 106 108 109 112 113 111 112 112 109 110 111 109 110 117 124 124 121 111 94 68 57 34 356 27 99 51 1 330 318 309 295 288 279 275 280
77 81 86 90 92 96 100 103 105 107 110 109 109 112 113 111 114 117 115 111 113 118 123 136 175 235 268 280 297 311 320 329 318 303 301 305 299 288 283 279 271 268